Wind_Speed
27 29 32 34 36 38 39 39 40 40 39 40 40 39 38 38 38 37 36 35 34 34 34 35 36 38 39 39 38 38 37 35 34 33 31 30 29 28 26 26 25 23 21
28 30 32 34 36 37 37 37 37 38 39 40 41 41 41 41 40 39 38 37 36 34 32 32 34 35 37 38 39 37 37 35 34 34 33 30 29 28 28 27 26 24 22
28 29 30 31 32 34 35 36 38 39 40 41 41 42 42 43 43 42 41 40 38 36 33 32 32 34 36 37 37 38 36 35 35 34 33 31 30 29 29 28 27 25 24
27 29 30 32 34 35 37 38 40 42 43 44 44 44 45 45 45 44 43 42 40 38 36 34 33 33 35 36 38 38 36 35 35 35 33 33 31 30 30 29 28 27 25
29 31 32 34 36 37 39 41 42 44 45 46 46 47 47 47 47 47 46 44 43 41 39 38 36 34 34 36 37 37 36 36 36 35 34 34 33 33 31 31 30 29 28
30 32 33 35 37 38 40 42 43 44 46 47 48 48 49 49 49 49 49 47 46 44 43 42 41 40 39 38 39 39 37 37 37 37 36 36 36 35 34 33 32 31 30
31 33 34 36 37 39 40 42 43 44 46 46 47 47 47 47 47 47 48 48 47 47 47 46 46 45 44 43 43 42 41 41 40 39 39 39 39 38 37 36 35 33 32
32 34 36 37 38 39 40 42 42 43 43 44 45 45 45 44 44 44 44 45 46 47 47 49 49 49 49 49 48 47 46 45 44 42 42 42 41 41 40 39 37 36 34
34 36 37 38 39 40 41 41 41 41 41 42 42 42 41 41 41 42 42 43 44 46 47 48 49 51 52 53 54 53 52 50 49 47 45 45 44 44 43 43 41 39 37
36 37 38 39 40 41 41 41 41 40 40 40 39 40 40 41 42 43 44 46 46 47 48 49 51 52 53 54 57 57 57 55 53 51 50 48 47 47 46 45 44 42 40
38 39 40 41 41 41 41 41 41 41 40 40 40 40 42 44 45 46 48 49 50 50 51 51 51 53 56 58 58 59 61 61 59 56 55 53 51 49 49 48 47 45 43
39 41 42 43 42 42 42 42 42 42 41 42 42 43 45 47 48 50 51 52 53 54 54 55 55 55 57 59 61 62 64 65 65 62 60 58 54 53 51 50 49 48 46
41 42 43 44 43 43 43 43 43 43 43 43 45 46 48 50 52 53 55 56 57 57 58 58 59 59 59 60 61 64 66 67 68 67 66 63 60 56 54 53 51 50 49
42 43 44 45 44 43 43 43 43 43 44 45 47 49 50 52 53 55 56 57 57 57 58 59 59 60 61 61 62 64 67 68 69 70 69 69 66 63 59 56 54 53 52
44 45 46 45 44 44 44 43 43 43 44 46 48 49 51 53 54 55 55 56 56 56 55 56 58 59 61 62 63 64 66 68 68 70 71 71 71 70 65 60 57 55 53
45 46 46 45 44 44 43 42 43 43 45 46 48 50 52 52 53 54 54 52 51 50 51 51 53 56 58 61 62 63 65 66 66 67 69 72 73 72 71 67 62 58 55
46 46 46 46 45 44 43 43 43 44 46 48 50 51 52 51 52 51 50 48 46 45 44 45 47 49 52 55 58 61 63 63 63 64 65 68 71 73 73 70 67 62 58
47 47 47 46 45 44 43 43 44 45 46 48 50 51 50 49 49 49 47 44 41 38 37 38 39 42 45 49 54 57 59 59 59 59 60 61 65 69 72 72 70 66 63
49 49 48 47 46 44 44 44 44 45 46 48 49 50 49 48 47 46 43 39 36 32 30 29 31 34 37 41 47 51 54 54 54 55 55 55 57 61 67 71 70 68 65
50 50 49 48 46 44 44 44 44 45 46 48 49 49 47 46 45 43 40 37 32 28 24 22 23 26 30 34 40 44 47 49 49 50 50 50 52 54 58 64 68 69 66
50 50 49 48 47 44 43 44 44 45 46 47 47 47 45 44 44 41 38 35 29 24 19 16 16 19 23 28 33 36 40 43 45 46 46 46 47 49 51 56 62 66 68
50 49 48 48 46 44 43 44 44 45 46 46 46 45 43 43 41 40 37 33 28 22 16 11 10 13 17 23 28 31 35 38 40 41 42 43 42 44 47 50 55 60 64
50 49 48 47 46 44 43 43 44 44 45 45 44 43 42 41 39 37 35 32 26 20 15 9 5 7 12 18 23 27 31 34 36 37 39 40 40 40 42 45 48 52 56
49 48 47 46 45 43 43 42 43 43 44 44 43 42 40 39 37 35 33 30 26 20 14 9 4 5 9 13 18 23 27 30 33 34 35 37 37 38 38 39 42 46 49
49 48 47 46 44 42 42 41 41 42 43 43 42 41 39 38 35 33 31 28 25 20 14 8 3 4 8 11 15 19 23 26 29 31 32 34 35 35 35 35 37 40 44
48 48 47 45 43 42 41 40 40 41 42 42 41 40 38 36 34 32 29 26 24 20 15 9 4 3 7 11 14 17 20 24 27 29 30 31 33 34 34 34 34 37 41
Wind_Direction
281 282 283 285 286 288 290 290 290 289 289 289 289 289 288 288 289 291 293 292 290 288 286 273 261 256 252 250 252 251 249 248 246 246 245 245 243 242 238 238 238 237 236
286 287 287 288 289 290 291 291 293 291 290 289 288 287 287 287 287 288 288 288 288 287 285 275 262 257 252 250 249 249 246 244 243 243 243 242 241 239 236 235 234 233 231
294 294 294 293 292 293 293 292 292 292 291 291 289 288 287 286 286 286 285 285 286 285 282 275 265 258 253 250 247 247 244 241 241 240 240 239 238 237 235 233 232 230 228
299 299 298 297 296 296 295 294 293 293 292 291 290 288 287 286 285 284 283 282 281 279 277 271 265 259 254 250 246 245 242 240 239 238 237 237 236 235 233 231 229 228 228
302 302 301 300 298 298 297 296 296 295 294 293 291 290 288 287 286 284 283 281 278 274 270 267 264 259 254 251 246 244 242 240 239 237 236 235 234 233 231 230 228 228 228
303 303 302 301 300 299 298 297 296 295 293 292 290 289 288 286 285 284 282 280 276 272 268 264 260 256 252 250 249 246 244 241 238 236 235 234 232 230 229 229 227 227 227
306 306 305 304 303 301 300 298 297 295 293 292 291 289 288 286 285 283 281 278 275 271 266 262 258 255 251 248 247 247 245 242 238 237 235 233 231 230 228 228 227 227 227
311 310 308 307 305 304 302 301 299 298 295 294 292 291 290 288 286 284 281 279 276 272 267 262 257 253 250 248 246 245 245 243 240 238 235 233 231 229 228 227 226 226 226
316 314 313 311 310 308 307 306 304 302 299 297 294 292 290 288 286 284 282 279 276 272 268 264 258 254 250 247 246 244 242 241 240 239 236 234 231 229 228 227 226 226 226
321 320 318 316 314 313 312 310 308 306 303 300 297 294 291 289 288 286 284 281 277 273 270 266 261 255 250 247 244 243 241 240 239 238 237 234 231 229 228 227 227 226 227
325 324 322 320 318 317 316 314 312 309 307 304 301 297 295 293 291 289 286 283 279 274 270 266 262 257 252 248 245 242 240 239 237 236 235 235 233 230 228 228 227 226 227
328 327 325 323 321 320 318 316 314 311 308 306 303 301 298 296 294 292 289 285 280 275 271 266 262 258 253 249 245 243 239 237 237 235 233 234 232 230 228 228 227 227 226
330 329 327 325 323 321 319 317 314 312 310 309 307 305 302 300 298 295 292 288 282 276 271 266 262 257 253 249 245 242 240 238 236 235 233 232 231 230 228 227 227 227 227
331 331 329 327 325 323 321 319 316 315 313 312 311 309 307 305 302 299 296 291 286 279 272 266 261 256 251 248 245 242 239 237 236 235 233 232 231 229 229 227 227 227 227
333 332 331 329 327 325 322 320 319 318 317 316 315 313 311 309 306 303 300 295 290 283 275 267 260 255 250 246 243 241 240 238 236 234 233 232 231 231 230 228 227 226 227
335 333 332 330 329 326 324 322 322 321 321 321 319 318 316 313 310 307 304 299 293 286 277 270 261 255 250 245 241 239 238 237 236 234 233 232 232 231 231 230 228 227 227
336 334 333 332 331 328 326 326 325 324 324 325 323 322 321 318 315 313 310 305 298 289 280 271 262 255 248 243 238 236 234 234 234 233 233 232 232 231 231 231 230 229 228
337 335 334 334 333 331 330 329 328 327 327 328 327 326 325 324 321 319 316 311 305 294 284 273 262 253 247 241 236 233 232 231 231 232 231 231 232 231 230 230 230 230 229
338 336 335 336 335 333 332 332 331 330 330 331 330 330 329 329 328 327 324 320 313 303 290 276 262 251 244 239 233 229 228 228 229 229 230 230 230 230 229 229 230 230 230
337 337 336 336 336 335 334 334 333 333 334 334 333 333 333 333 334 334 332 329 322 313 299 279 264 250 241 235 229 225 224 224 223 225 226 227 228 228 228 228 228 229 229
337 337 336 336 337 336 336 336 336 336 337 337 337 337 337 337 338 338 338 337 333 325 312 289 266 246 236 229 223 220 219 218 219 221 223 224 226 226 226 226 227 227 228
338 337 337 337 337 337 338 338 339 339 340 340 341 341 341 341 342 343 344 343 342 337 330 308 271 242 231 222 217 214 213 213 215 218 220 221 222 224 225 224 225 226 227
338 338 337 337 338 338 339 340 341 341 342 343 344 344 345 345 345 346 348 349 348 345 341 330 295 240 221 215 211 211 212 212 212 215 217 218 220 221 222 223 224 223 224
338 338 338 338 339 340 340 341 342 344 345 345 346 346 347 347 347 348 349 352 353 351 346 340 308 237 218 212 209 210 209 209 210 212 214 215 217 219 221 222 223 221 219
339 339 339 339 340 341 341 341 343 345 347 347 347 348 348 348 348 349 350 352 355 357 355 353 328 228 213 209 206 205 205 206 206 208 211 213 215 216 218 220 220 219 216
340 339 339 339 340 342 342 342 344 346 348 349 350 350 350 350 350 350 351 352 354 355 355 352 337 251 214 207 205 205 204 203 203 205 208 210 212 214 216 217 219 218 214
Height
5862 5860 5858 5856 5853 5850 5846 5843 5839 5836 5833 5830 5827 5824 5822 5819 5817 5814 5811 5807 5804 5801 5797 5794 5794 5795 5797 5800 5803 5806 5808 5811 5813 5815 5818 5820 5822 5824 5827 5829 5831 5833 5835
5856 5853 5850 5848 5844 5841 5837 5834 5830 5826 5823 5820 5817 5814 5811 5809 5806 5804 5802 5799 5796 5793 5789 5787 5786 5787 5788 5791 5795 5797 5799 5801 5804 5807 5810 5813 5816 5818 5820 5823 5825 5828 5830
5849 5846 5843 5839 5836 5832 5829 5825 5821 5817 5813 5809 5806 5803 5801 5798 5796 5793 5791 5789 5786 5783 5781 5779 5779 5779 5780 5783 5785 5788 5790 5793 5795 5798 5802 5806 5808 5811 5815 5817 5819 5822 5825
5842 5839 5835 5831 5828 5824 5820 5816 5811 5807 5803 5799 5795 5792 5789 5786 5784 5781 5779 5778 5776 5774 5772 5771 5771 5771 5773 5774 5776 5778 5780 5783 5786 5790 5793 5798 5801 5805 5808 5811 5813 5816 5819
5836 5832 5828 5824 5819 5815 5810 5806 5801 5796 5792 5787 5783 5780 5776 5773 5771 5768 5767 5766 5764 5763 5762 5762 5762 5763 5764 5765 5766 5768 5770 5773 5777 5780 5784 5789 5793 5796 5800 5803 5807 5810 5813
5829 5825 5820 5816 5811 5806 5801 5796 5791 5786 5781 5776 5772 5768 5764 5761 5758 5755 5753 5752 5752 5751 5751 5751 5751 5752 5754 5755 5756 5758 5760 5763 5767 5771 5775 5780 5784 5788 5792 5796 5800 5803 5807
5822 5818 5813 5808 5803 5797 5792 5787 5781 5776 5770 5765 5760 5755 5751 5748 5745 5742 5739 5738 5737 5737 5737 5737 5738 5740 5742 5744 5745 5747 5750 5753 5757 5760 5765 5770 5775 5779 5783 5788 5792 5796 5800
5816 5810 5805 5800 5794 5788 5782 5776 5771 5765 5759 5753 5748 5743 5738 5734 5731 5728 5726 5723 5722 5721 5721 5722 5724 5725 5728 5730 5733 5736 5739 5742 5746 5750 5754 5759 5764 5769 5774 5779 5784 5788 5793
5809 5803 5797 5791 5785 5778 5772 5765 5759 5753 5747 5741 5736 5731 5726 5722 5719 5715 5712 5710 5708 5706 5706 5706 5708 5710 5712 5715 5718 5722 5726 5729 5734 5738 5743 5747 5753 5758 5764 5769 5774 5780 5784
5801 5794 5788 5781 5775 5768 5761 5754 5748 5741 5735 5730 5724 5719 5714 5710 5706 5702 5699 5696 5693 5691 5690 5690 5691 5693 5695 5698 5702 5706 5710 5715 5720 5725 5730 5735 5741 5747 5752 5758 5764 5770 5775
5793 5786 5779 5771 5764 5757 5750 5743 5736 5730 5724 5718 5712 5707 5702 5696 5691 5687 5683 5679 5677 5674 5673 5673 5673 5675 5677 5680 5684 5689 5693 5699 5704 5710 5717 5723 5728 5734 5740 5747 5753 5759 5765
5785 5777 5769 5762 5754 5747 5739 5732 5725 5718 5712 5706 5700 5694 5688 5681 5675 5670 5665 5661 5658 5655 5653 5653 5654 5655 5657 5660 5665 5670 5675 5681 5687 5694 5701 5708 5714 5720 5727 5734 5741 5748 5755
5777 5769 5761 5753 5745 5737 5729 5722 5714 5707 5700 5694 5687 5680 5672 5665 5658 5651 5645 5640 5636 5633 5631 5630 5631 5633 5636 5639 5644 5649 5655 5662 5669 5676 5684 5691 5699 5707 5714 5721 5729 5736 5743
5769 5761 5753 5744 5736 5728 5719 5711 5704 5696 5689 5681 5673 5665 5656 5648 5640 5631 5624 5617 5612 5608 5606 5606 5607 5609 5613 5617 5623 5628 5635 5642 5649 5658 5666 5674 5682 5691 5699 5707 5715 5723 5731
5762 5753 5744 5736 5727 5719 5710 5702 5694 5686 5677 5669 5660 5650 5641 5631 5622 5612 5603 5595 5588 5583 5581 5580 5582 5585 5589 5594 5601 5608 5614 5621 5630 5639 5648 5657 5666 5675 5683 5692 5701 5710 5718
5755 5746 5737 5728 5719 5710 5701 5693 5684 5675 5666 5657 5647 5636 5626 5615 5604 5593 5583 5574 5566 5560 5557 5556 5557 5560 5565 5571 5578 5586 5594 5602 5611 5620 5629 5639 5649 5658 5667 5677 5686 5696 5705
5748 5739 5729 5720 5711 5701 5692 5683 5674 5665 5655 5645 5634 5623 5612 5600 5588 5576 5565 5555 5547 5540 5536 5534 5535 5538 5543 5549 5557 5565 5574 5584 5593 5603 5612 5621 5631 5642 5652 5662 5672 5681 5691
5742 5732 5722 5712 5703 5693 5683 5673 5664 5654 5644 5634 5622 5611 5599 5587 5574 5562 5550 5539 5530 5523 5519 5517 5517 5520 5524 5530 5538 5547 5557 5568 5578 5587 5596 5606 5615 5626 5636 5647 5658 5668 5678
5734 5724 5713 5704 5694 5684 5674 5665 5655 5645 5634 5624 5612 5600 5587 5576 5563 5551 5539 5528 5518 5511 5506 5503 5503 5506 5510 5515 5523 5532 5543 5554 5565 5574 5583 5592 5602 5612 5623 5634 5645 5656 5666
5727 5716 5706 5696 5686 5676 5666 5657 5647 5636 5626 5615 5603 5590 5578 5566 5554 5542 5530 5519 5510 5502 5497 5494 5494 5496 5500 5505 5512 5521 5532 5543 5554 5564 5573 5582 5591 5599 5608 5619 5630 5641 5652
5720 5710 5699 5689 5679 5669 5659 5649 5639 5629 5618 5607 5595 5583 5571 5559 5547 5535 5524 5514 5504 5497 5491 5489 5488 5490 5493 5498 5505 5513 5523 5533 5543 5553 5563 5571 5580 5589 5598 5607 5617 5627 5639
5714 5703 5693 5682 5672 5662 5653 5643 5633 5622 5611 5600 5588 5577 5565 5553 5542 5532 5521 5511 5502 5495 5489 5487 5486 5487 5490 5494 5501 5508 5517 5526 5536 5545 5554 5563 5572 5580 5589 5597 5605 5615 5626
5707 5697 5687 5676 5666 5656 5646 5637 5627 5616 5606 5595 5583 5572 5561 5550 5539 5529 5519 5510 5501 5495 5490 5487 5486 5487 5489 5493 5498 5505 5512 5521 5529 5538 5547 5555 5564 5572 5580 5588 5596 5605 5615
5701 5691 5681 5670 5660 5650 5641 5631 5622 5612 5601 5590 5579 5569 5558 5547 5537 5528 5519 5510 5502 5496 5491 5488 5487 5488 5490 5493 5497 5503 5509 5516 5525 5533 5541 5549 5557 5565 5573 5580 5588 5597 5606
5695 5685 5675 5665 5655 5646 5636 5627 5618 5608 5598 5587 5576 5566 5556 5546 5536 5527 5519 5511 5504 5498 5494 5491 5489 5489 5491 5494 5497 5502 5508 5514 5521 5529 5536 5544 5552 5559 5567 5574 5581 5589 5598
5690 5680 5670 5660 5651 5641 5632 5623 5614 5605 5595 5585 5575 5564 5554 5545 5536 5527 5519 5512 5506 5500 5496 5493 5491 5491 5492 5494 5497 5501 5506 5512 5518 5525 5532 5539 5547 5554 5561 5568 5575 5582 5591